Weather History for Fort Myers Airport, FL

Change the Weather History Date:

Saturday, August 31, 2013

  Actual Average Record
Temperature  
Mean Temperature 82 °F -  
Max Temperature 89 °F 90 °F 96 °F (1940)
Min Temperature 75 °F 74 °F 70 °F (1956)
Cooling Degree Days 16    
Growing Degree Days 32 (Base 50)    
Moisture  
Dew Point 72 °F    
Average Humidity 76    
Maximum Humidity 94    
Minimum Humidity 53    
Precipitation  
Precipitation 0.00 in - - ()
Sea Level Pressure  
Sea Level Pressure 29.95 in    
Wind  
Wind Speed 5 mph (South)    
Max Wind Speed 15 mph    
Max Gust Speed 22 mph    
Visibility 10 miles    
Events      
Averages and records for this station are not official NWS values.
T = Trace of Precipitation, MM = Missing Value Source: NWS Daily Summary

Daily Weather History Graph

Daily Weather History Graph

Search for Another Location

Airport:

Trip Planner

Search our weather history database for the weather conditions in past years. The results will help you decide how hot, cold, wet, or windy it might be!

Date:

Astronomy

Aug. 31, 2013 Rise Set
Actual Time 7:06 AM EDT 7:47 PM EDT
Civil Twilight 6:42 AM EDT 8:11 PM EDT
Nautical Twilight 6:15 AM EDT 8:38 PM EDT
Astronomical Twilight 5:46 AM EDT 9:06 PM EDT
Moon 2:49 AM EDT (8/31) 4:30 PM EDT (8/31)
Length of Visible Light 13h 28m
Length of Day
12h 41m
Waning Crescent, 21% of the Moon is Illuminated
Aug 31
Waning Crescent
Sep 5
New
Sep 12
First Quarter
Sep 19
Full
Sep 26
Last Quarter

Hourly Weather History & Observations

Time (EDT) Temp. Heat Index Dew Point Humidity Pressure Visibility Wind Dir Wind Speed Gust Speed Precip Events Conditions
12:53 AM 77.0 °F - 72.0 °F 84% 29.96 in 10.0 mi Calm Calm - N/A   Clear
1:53 AM 75.9 °F - 72.0 °F 87% 29.95 in 10.0 mi Calm Calm - N/A   Clear
2:53 AM 75.9 °F - 73.0 °F 91% 29.94 in 10.0 mi Calm Calm - N/A   Clear
3:53 AM 75.9 °F - 73.0 °F 91% 29.92 in 10.0 mi Calm Calm - N/A   Clear
4:53 AM 75.0 °F - 72.0 °F 90% 29.92 in 10.0 mi SSE 3.5 mph - N/A   Clear
5:53 AM 75.0 °F - 72.0 °F 90% 29.91 in 10.0 mi SE 3.5 mph - N/A   Clear
6:53 AM 75.0 °F - 73.0 °F 94% 29.93 in 10.0 mi SE 4.6 mph - N/A   Clear
7:53 AM 77.0 °F - 73.9 °F 90% 29.94 in 10.0 mi SSE 3.5 mph - N/A   Clear
8:53 AM 80.1 °F 85.1 °F 75.0 °F 85% 29.96 in 10.0 mi South 5.8 mph - N/A   Clear
9:53 AM 82.9 °F 89.4 °F 73.9 °F 74% 29.98 in 10.0 mi South 9.2 mph - N/A   Clear
10:53 AM 86.0 °F 93.0 °F 73.0 °F 65% 29.99 in 10.0 mi SSW 11.5 mph - N/A   Scattered Clouds
11:13 AM 86.0 °F 93.4 °F 73.4 °F 66% 29.99 in 10.0 mi SW 10.4 mph - N/A   Mostly Cloudy
11:20 AM 84.2 °F 90.9 °F 73.4 °F 70% 29.99 in 10.0 mi SW 10.4 mph - N/A   Scattered Clouds
11:53 AM 87.1 °F 93.6 °F 72.0 °F 61% 29.98 in 10.0 mi WSW 15.0 mph - N/A   Clear
12:53 PM 87.1 °F 93.6 °F 72.0 °F 61% 29.97 in 10.0 mi WSW 10.4 mph - N/A   Clear
1:53 PM 88.0 °F 94.7 °F 72.0 °F 59% 29.96 in 10.0 mi SW 11.5 mph 21.9 mph N/A   Clear
2:53 PM 88.0 °F 92.1 °F 69.1 °F 53% 29.94 in 10.0 mi Variable 6.9 mph - N/A   Clear
3:53 PM 88.0 °F 93.8 °F 71.1 °F 57% 29.92 in 10.0 mi SW 9.2 mph - N/A   Clear
4:53 PM 86.0 °F 92.2 °F 72.0 °F 63% 29.91 in 10.0 mi WSW 9.2 mph - N/A   Partly Cloudy
5:53 PM 84.9 °F 91.4 °F 73.0 °F 67% 29.92 in 10.0 mi South 9.2 mph - N/A   Clear
6:53 PM 79.0 °F - 69.1 °F 72% 29.93 in 10.0 mi SSE 13.8 mph - N/A   Clear
7:53 PM 79.0 °F - 70.0 °F 74% 29.94 in 10.0 mi SSE 4.6 mph - N/A   Clear
8:53 PM 77.0 °F - 72.0 °F 84% 29.95 in 10.0 mi ESE 3.5 mph - N/A   Clear
9:53 PM 77.0 °F - 72.0 °F 84% 29.97 in 10.0 mi ESE 3.5 mph - N/A   Clear
10:53 PM 75.9 °F - 71.1 °F 85% 29.99 in 10.0 mi SSE 6.9 mph - N/A   Clear
11:53 PM 75.9 °F - 71.1 °F 85% 29.98 in 10.0 mi Calm Calm - N/A   Clear